GW4458 Weather Reports


Display with metric or nautical units.
time (UTC)temp
F
wind
direction
speed
MPH
gust
MPH
rain 1hr
in
rain 24hr
in
rain mn
in
humidity
%
barometer
mb
20260505124525 62 148 1.0 3.0 0.00 0.00 0.00 68 993.5
20260505123525 60 183 0.0 2.0 0.00 0.00 0.00 74 993.4
20260505122521 58 0.0 0.0 0.00 0.00 0.00 79 993.4
20260505121524 58 158 0.0 1.0 0.00 0.00 0.00 79 993.2
20260505120525 58 150 0.0 2.0 0.00 0.00 0.00 79 993.1
20260505115524 56 0.0 0.0 0.00 0.00 0.00 82 993.0
20260505114545 55 0.0 0.0 0.00 0.00 0.00 83 993.1
20260505113526 53 0.0 0.0 0.00 0.00 0.00 87 992.9
20260505112526 52 0.0 0.0 0.00 0.00 0.00 89 992.7
20260505111524 50 0.0 0.0 0.00 0.00 0.00 89 992.5
20260505110520 50 0.0 0.0 0.00 0.00 0.00 88 992.4
20260505101521 52 0.0 1.0 0.00 0.00 0.00 83 992.2
20260505100524 52 151 0.0 2.0 0.00 0.00 0.00 81 992.1
20260505095530 52 139 1.0 2.0 0.00 0.00 0.00 82 992.4
20260505094545 52 141 0.0 2.0 0.00 0.00 0.00 82 992.5
20260505093524 52 0.0 0.0 0.00 0.00 0.00 83 992.5
20260505092545 51 0.0 0.0 0.00 0.00 0.00 83 992.2
20260505091519 51 0.0 0.0 0.00 0.00 0.00 83 992.1
20260505090524 52 0.0 0.0 0.00 0.00 0.00 83 992.2
20260505085527 52 0.0 0.0 0.00 0.00 0.00 83 992.4
20260505084525 52 0.0 0.0 0.00 0.00 0.00 83 992.5
20260505083524 52 305 0.0 2.0 0.00 0.00 0.00 83 992.5
20260505082520 52 278 0.0 1.0 0.00 0.00 0.00 84 992.4
20260505081540 52 0.0 1.0 0.00 0.00 0.00 85 992.4
20260505080529 52 0.0 0.0 0.00 0.00 0.00 85 992.4
20260505075525 52 0.0 0.0 0.00 0.00 0.00 83 992.4
20260505074544 52 0.0 0.0 0.00 0.00 0.00 83 992.3
20260505073524 52 0.0 0.0 0.00 0.00 0.00 82 992.4
20260505072524 52 0.0 0.0 0.00 0.00 0.00 81 992.5
20260505071528 53 0.0 0.0 0.00 0.00 0.00 81 992.6
20260505070525 53 0.0 0.0 0.00 0.00 0.00 81 992.5
20260505065525 53 0.0 0.0 0.00 0.00 0.00 79 992.5
20260505064524 53 0.0 0.0 0.00 0.00 0.00 79 992.4
20260505063524 54 255 0.0 1.0 0.00 0.00 0.00 79 992.4
20260505062525 54 153 0.0 2.0 0.00 0.00 0.00 78 992.5
20260505061547 55 0.0 0.0 0.00 0.00 0.00 76 992.5
20260505060524 56 0.0 1.0 0.00 0.00 0.00 74 992.5
20260505055545 57 0.0 0.0 0.00 0.00 0.00 72 992.6
20260505054526 57 0.0 0.0 0.00 0.00 0.00 69 992.6
20260505053544 57 0.0 0.0 0.00 0.00 0.00 69 992.7
20260505052527 57 135 0.0 2.0 0.00 0.00 0.00 70 992.7
20260505051520 57 0.0 1.0 0.00 0.00 0.00 70 992.7
20260505050524 57 0.0 0.0 0.00 0.00 0.00 71 992.7
20260505041526 58 0.0 0.0 0.00 0.00 0.00 65 992.6
20260505040525 59 0.0 0.0 0.00 0.00 0.00 63 992.5
20260505035525 60 0.0 0.0 0.00 0.00 0.00 60 992.5
20260505034524 61 0.0 0.0 0.00 0.00 0.00 59 992.6
20260505033530 61 0.0 0.0 0.00 0.00 0.00 59 992.7
20260505032526 61 0.0 0.0 0.00 0.00 0.00 59 992.8
20260505031524 61 140 0.0 2.0 0.00 0.00 0.00 59 992.7
20260505030520 62 127 0.0 1.0 0.00 0.00 0.00 59 992.7
20260505025525 62 154 0.0 1.0 0.00 0.00 0.00 58 992.7
20260505024530 62 274 0.0 2.0 0.00 0.00 0.00 58 992.6
20260505023526 63 149 1.0 3.0 0.00 0.00 0.00 57 992.5
20260505022525 63 0.0 0.0 0.00 0.00 0.00 56 992.5
20260505021521 64 218 0.0 1.0 0.00 0.00 0.00 55 992.3
20260505020539 64 0.0 0.0 0.00 0.00 0.00 54 992.3
20260505015545 65 0.0 0.0 0.00 0.00 0.00 54 992.2
20260505014526 65 0.0 0.0 0.00 0.00 0.00 53 992.1
20260505013524 66 0.0 0.0 0.00 0.00 0.00 53 992.0
20260505012524 67 0.0 0.0 0.00 0.00 0.00 52 991.9
20260505011520 68 175 0.0 3.0 0.00 0.00 0.00 50 991.9
20260505010524 68 201 0.0 1.0 0.00 0.00 0.00 49 991.8
20260505005530 70 176 0.0 2.0 0.00 0.00 0.00 49 991.8
20260505004545 71 150 0.0 2.0 0.00 0.00 0.00 46 991.7
20260505003525 72 156 1.0 2.0 0.00 0.00 0.00 44 991.6
20260505002525 74 209 0.0 2.0 0.00 0.00 0.00 41 991.5
20260505001525 75 215 1.0 2.0 0.00 0.00 0.00 40 991.5
20260505000524 76 228 1.0 4.0 0.00 0.00 0.00 38 991.5
20260504235526 78 195 1.0 4.0 0.00 0.00 0.00 36 991.5
20260504234526 79 223 2.0 4.0 0.00 0.00 0.00 34 991.4
20260504233607 79 222 3.0 7.0 0.00 0.00 0.00 33 991.4
20260504232519 80 220 2.0 5.0 0.00 0.00 0.00 34 991.4
20260504231521 80 223 2.0 7.0 0.00 0.00 0.00 34 991.4
20260504230527 80 194 2.0 4.0 0.00 0.00 0.00 34 991.3
20260504225524 80 191 3.0 5.0 0.00 0.00 0.00 33 991.4
20260504224525 81 221 3.0 8.0 0.00 0.00 0.00 32 991.5
20260504223526 80 227 5.0 9.0 0.00 0.00 0.00 31 991.5
20260504222524 81 198 4.0 7.0 0.00 0.00 0.00 32 991.5
20260504221528 82 208 5.0 9.0 0.00 0.00 0.00 32 991.4
20260504220520 82 210 3.0 8.0 0.00 0.00 0.00 32 991.5
20260504215544 82 232 4.0 8.0 0.00 0.00 0.00 33 991.4
20260504214524 81 218 5.0 11.0 0.00 0.00 0.00 34 991.4
20260504213525 83 216 4.0 8.0 0.00 0.00 0.00 32 991.5
20260504212525 84 200 3.0 6.0 0.00 0.00 0.00 32 991.4
20260504211526 83 186 3.0 7.0 0.00 0.00 0.00 32 991.4
20260504210526 82 132 4.0 7.0 0.00 0.00 0.00 31 991.4
20260504205525 84 195 4.0 7.0 0.00 0.00 0.00 30 991.5
20260504204531 83 177 3.0 6.0 0.00 0.00 0.00 33 991.6
20260504203525 82 264 4.0 7.0 0.00 0.00 0.00 33 991.7
20260504202530 81 249 3.0 7.0 0.00 0.00 0.00 33 991.8
20260504201524 82 218 4.0 8.0 0.00 0.00 0.00 31 992.0
20260504200525 83 214 2.0 5.0 0.00 0.00 0.00 30 992.1
20260504195546 83 218 2.0 4.0 0.00 0.00 0.00 32 992.2
20260504194525 83 141 2.0 5.0 0.00 0.00 0.00 31 992.4
20260504193530 83 216 2.0 5.0 0.00 0.00 0.00 32 992.6
20260504192525 82 234 3.0 6.0 0.00 0.00 0.00 34 992.8
20260504191548 82 304 3.0 6.0 0.00 0.00 0.00 33 992.9
20260504190543 83 171 2.0 4.0 0.00 0.00 0.00 31 993.1
20260504185525 83 231 2.0 4.0 0.00 0.00 0.00 34 993.2
20260504184525 81 41 2.0 5.0 0.00 0.00 0.00 35 993.4
20260504183522 81 179 3.0 5.0 0.00 0.00 0.00 36 993.5
20260504182525 82 205 2.0 5.0 0.00 0.00 0.00 35 993.6
20260504181524 80 187 2.0 3.0 0.00 0.00 0.00 37 993.6
20260504180521 79 206 2.0 4.0 0.00 0.00 0.00 36 993.9
20260504175525 79 164 3.0 6.0 0.00 0.00 0.00 37 994.0
20260504174552 79 342 3.0 6.0 0.00 0.00 0.00 36 994.0
20260504173545 78 262 4.0 7.0 0.00 0.00 0.00 37 994.3
20260504172525 79 306 4.0 7.0 0.00 0.00 0.00 38 994.4
20260504171525 79 239 2.0 6.0 0.00 0.00 0.00 37 994.5
20260504170522 77 141 2.0 4.0 0.00 0.00 0.00 37 994.8
20260504150528 73 257 3.0 7.0 0.00 0.00 0.00 42 995.8
20260504140527 67 147 2.0 3.0 0.00 0.00 0.00 51 996.2